Weather History for Geneva, Switzerland

Change the Weather History Date:

Sunday, October 20, 2013

  Actual Average Record
Temperature  
Mean Temperature 55 °F -  
Max Temperature 59 °F 50 °F 66 °F (2008)
Min Temperature 51 °F 37 °F 33 °F (2002)
Degree Days  
Heating Degree Days 10    
Growing Degree Days 5 (Base 50)    
Moisture  
Dew Point 55 °F    
Average Humidity 88    
Maximum Humidity 100    
Minimum Humidity 64    
Precipitation  
Precipitation 0.63 in 0.11 in - ()
Sea Level Pressure  
Sea Level Pressure 30.10 in    
Wind  
Wind Speed 6 mph ()    
Max Wind Speed 14 mph    
Max Gust Speed -    
Visibility 6.3 miles    
Events Fog , Rain , Thunderstorm    
Averages and records for this station are not official NWS values.
T = Trace of Precipitation, MM = Missing Value Source: Averaged Metar Reports

Daily Weather History Graph

Daily Weather History Graph

Search for Another Location

Airport:

Trip Planner

Search our weather history database for the weather conditions in past years. The results will help you decide how hot, cold, wet, or windy it might be!

Date:

Astronomy

Oct. 20, 2013 Rise Set
Actual Time 7:59 AM CEST 6:40 PM CEST
Civil Twilight 7:28 AM CEST 7:10 PM CEST
Nautical Twilight 6:54 AM CEST 7:45 PM CEST
Astronomical Twilight 6:19 AM CEST 8:20 PM CEST
Moon 7:31 PM CEST (10/20) 9:26 AM CEST (10/20)
Length of Visible Light 11h 41m
Length of Day
10h 40m
Full, 98% of the Moon is Illuminated
Oct 20
Full
Oct 27
Last Quarter
Nov 3
New
Nov 10
First Quarter
Nov 17
Full

Hourly Weather History & Observations

Time (CEST) Temp. Dew Point Humidity Pressure Visibility Wind Dir Wind Speed Gust Speed Precip Events Conditions
12:00 AM 64 °F 55 °F 64% 30.06 in - WSW 6.9 mph - -  
12:20 AM 62.6 °F 57.2 °F 82% 30.09 in 6.2 mi WSW 8.1 mph - N/A   Mostly Cloudy
12:50 AM 62.6 °F 57.2 °F 82% 30.06 in 6.2 mi WSW 4.6 mph - N/A   Mostly Cloudy
1:00 AM 62 °F 54 °F 69% 30.06 in - SW 8.1 mph - -  
1:20 AM 62.6 °F 55.4 °F 77% 30.06 in 6.2 mi SW 8.1 mph - N/A   Mostly Cloudy
1:50 AM 62.6 °F 55.4 °F 77% 30.06 in 6.2 mi SW 9.2 mph - N/A   Mostly Cloudy
2:00 AM 63 °F 54 °F 66% 30.04 in 19 mi SW 11.5 mph - -   Mostly Cloudy
2:20 AM 62.6 °F 55.4 °F 77% 30.06 in - SW 10.4 mph - N/A   Clear
2:50 AM 62.6 °F 55.4 °F 77% 30.06 in - SW 8.1 mph - N/A   Clear
3:00 AM 62 °F 55 °F 70% 30.04 in - SW 8.1 mph - -  
3:50 AM 60.8 °F 55.4 °F 82% 30.06 in - SW 4.6 mph - N/A   Clear
4:00 AM 62 °F 54 °F 69% 30.03 in - SSW 5.8 mph - -  
4:20 AM 60.8 °F 55.4 °F 82% 30.06 in - West 6.9 mph - N/A   Clear
4:50 AM 60.8 °F 57.2 °F 88% 30.06 in 6.2 mi West 5.8 mph - N/A   Mostly Cloudy
5:20 AM 59.0 °F 55.4 °F 88% 30.06 in 6.2 mi West 4.6 mph - N/A   Mostly Cloudy
5:50 AM 60.8 °F 55.4 °F 82% 30.04 in 6.2 mi SW 9.2 mph - N/A   Mostly Cloudy
6:00 AM 61 °F 55 °F 73% 30.03 in - WSW 10.4 mph - -  
6:20 AM 60.8 °F 55.4 °F 82% 30.04 in 6.2 mi WSW 8.1 mph - N/A   Mostly Cloudy
6:50 AM 60.8 °F 55.4 °F 82% 30.04 in 6.2 mi West 4.6 mph - N/A   Mostly Cloudy
7:00 AM 59 °F 55 °F 82% 30.03 in - West 5.8 mph - -  
7:20 AM 59.0 °F 55.4 °F 88% 30.04 in 6.2 mi Calm Calm - N/A   Mostly Cloudy
7:50 AM 59.0 °F 55.4 °F 88% 30.04 in 6.2 mi Variable 3.5 mph - N/A   Mostly Cloudy
8:00 AM 59 °F 55 °F 82% 30.03 in 19 mi SSE 2.3 mph - -   Scattered Clouds
8:20 AM 59.0 °F 57.2 °F 94% 30.04 in 6.2 mi Variable 3.5 mph - N/A Rain Light Rain Showers
8:50 AM 59.0 °F 57.2 °F 94% 30.06 in 6.2 mi WSW 5.8 mph - N/A   Mostly Cloudy
9:00 AM 60 °F 54 °F 74% 30.06 in - West 8.1 mph - -  
9:20 AM 59.0 °F 55.4 °F 88% 30.09 in 5.6 mi WSW 6.9 mph - N/A Rain Light Rain Showers
9:50 AM 59.0 °F 57.2 °F 94% 30.09 in 5.0 mi WSW 6.9 mph - N/A Rain Light Rain Showers
10:00 AM 58 °F 55 °F 88% 30.10 in - SW 8.1 mph - -  
10:20 AM 59.0 °F 57.2 °F 94% 30.12 in 5.0 mi SSW 9.2 mph - N/A Rain Light Rain
10:50 AM 59.0 °F 55.4 °F 88% 30.12 in 5.6 mi SW 12.7 mph - N/A Rain Light Rain
11:20 AM 57.2 °F 55.4 °F 94% 30.12 in 3.7 mi WSW 13.8 mph - N/A Rain Rain
11:50 AM 57.2 °F 55.4 °F 94% 30.12 in 5.0 mi West 8.1 mph - N/A Rain Light Rain
12:00 PM 58 °F 55 °F 86% 30.13 in - West 6.9 mph - -  
12:20 PM 57.2 °F 57.2 °F 100% 30.12 in 6.2 mi West 4.6 mph - N/A   Mostly Cloudy
12:50 PM 57.2 °F 57.2 °F 100% 30.12 in 6.2 mi Variable 2.3 mph - N/A   Mostly Cloudy
1:00 PM 58 °F 56 °F 90% 30.14 in - SW 4.6 mph - -  
1:20 PM 57.2 °F 55.4 °F 94% 30.15 in 3.1 mi WSW 5.8 mph - N/A Rain Rain
1:50 PM 57.2 °F 55.4 °F 94% 30.18 in 3.1 mi SW 11.5 mph - N/A Rain Rain
2:00 PM 57 °F 54 °F 88% 30.17 in 3 mi SW 11.5 mph - - Rain Rain
2:20 PM 55.4 °F 55.4 °F 100% 30.15 in 3.7 mi SSW 8.1 mph - N/A Rain , Thunderstorm Thunderstorms and Rain
2:50 PM 57.2 °F 55.4 °F 94% 30.15 in 5.6 mi Variable 2.3 mph - N/A Rain Light Rain
3:00 PM 57 °F 55 °F 90% 30.15 in - North 4.6 mph - -  
3:20 PM 57.2 °F 55.4 °F 94% 30.15 in 6.2 mi NNE 4.6 mph - N/A   Overcast
3:50 PM 57.2 °F 55.4 °F 94% 30.15 in 6.2 mi Variable 2.3 mph - N/A   Mostly Cloudy
4:00 PM 57 °F 55 °F 92% 30.14 in - North 1.2 mph - -  
4:20 PM 57.2 °F 55.4 °F 94% 30.12 in 6.2 mi Variable 1.2 mph - N/A   Mostly Cloudy
4:50 PM 57.2 °F 55.4 °F 94% 30.12 in 6.2 mi Variable 2.3 mph - N/A   Mostly Cloudy
5:20 PM 57.2 °F 55.4 °F 94% 30.12 in 6.2 mi Variable 2.3 mph - N/A   Mostly Cloudy
5:50 PM 57.2 °F 55.4 °F 94% 30.12 in 6.2 mi Variable 2.3 mph - N/A   Mostly Cloudy
6:00 PM 58 °F 54 °F 83% 30.12 in - WSW 3.5 mph - -  
6:20 PM 59.0 °F 55.4 °F 88% 30.12 in 6.2 mi WSW 3.5 mph - N/A   Mostly Cloudy
6:50 PM 55.4 °F 55.4 °F 100% 30.12 in 6.2 mi South 3.5 mph - N/A Fog Shallow Fog
7:00 PM 56 °F 54 °F 90% 30.13 in - South 3.5 mph - -  
7:20 PM 55.4 °F 55.4 °F 100% 30.12 in 6.2 mi SW 4.6 mph - N/A Fog Shallow Fog
7:50 PM 55.4 °F 55.4 °F 100% 30.15 in 6.2 mi West 3.5 mph - N/A   Scattered Clouds
8:00 PM 54 °F 53 °F 93% 30.15 in 37 mi WSW 3.5 mph - -   Partly Cloudy
8:20 PM 53.6 °F 53.6 °F 100% 30.15 in 6.2 mi SW 4.6 mph - N/A   Scattered Clouds
8:50 PM 53.6 °F 53.6 °F 100% 30.15 in 6.2 mi SW 5.8 mph - N/A   Scattered Clouds
9:00 PM 55 °F 52 °F 86% 30.15 in - SW 8.1 mph - -  
9:20 PM 53.6 °F 53.6 °F 100% 30.15 in - SW 6.9 mph - N/A   Clear
9:50 PM 53.6 °F 51.8 °F 94% 30.15 in - SW 5.8 mph - N/A   Clear
10:00 PM 54 °F 51 °F 88% 30.16 in - SW 4.6 mph - -  
10:20 PM 51.8 °F 51.8 °F 100% 30.15 in 6.2 mi Variable 3.5 mph - N/A   Partly Cloudy
10:50 PM 51.8 °F 51.8 °F 100% 30.15 in 6.2 mi Calm Calm - N/A   Mostly Cloudy
11:20 PM 53.6 °F 51.8 °F 94% 30.18 in 6.2 mi Variable 3.5 mph - N/A   Mostly Cloudy
11:50 PM 53.6 °F 51.8 °F 94% 30.15 in 6.2 mi South 3.5 mph - N/A   Mostly Cloudy